TIANMU-1 14

Last updated on Tue Sep 16 2025 00:02:23 GMT+0000 (Coordinated Universal Time)

1 58648U 23205D 25258.59459917 .00006103 00000+0 26285-3 0 9999 2 58648 97.3650 279.2432 0007912 210.3281 149.7499 15.22929111 95659
UTC large
Height (km)
Speed (km/s)
/
Latitude / Longitude
Inclination (degrees)
Orbital Period (minutes)
Azimuth
Elevation
Range (km)
Doppler Factor

Next 0 passes for location: London (51.5072 / 0.1276)

Sorry there are no passes over London.